EW8621 Weather Reports


time (UTC)temp
C
wind
direction
speed
KPH
gust
KPH
rain 1hr
cm
rain 24hr
cm
rain mn
cm
humidity
%
barometer
mb
20260502195800 17 235 1.6 6.4 0.00 0.00 0.00 72 1012.5
20260502195257 17 171 1.6 9.7 0.00 0.00 0.00 71 1012.6
20260502194756 17 109 1.6 11.3 0.00 0.00 0.00 71 1012.7
20260502194257 18 216 1.6 11.3 0.00 0.00 0.00 71 1012.8
20260502193755 18 143 1.6 11.3 0.00 0.00 0.00 71 1012.8
20260502193255 18 287 1.6 14.5 0.00 0.00 0.00 70 1013.0
20260502193018 18 155 4.8 14.5 0.00 0.00 0.00 69 1013.0
20260502192252 19 155 4.8 14.5 0.00 0.00 0.00 68 1012.8
20260502191755 20 154 6.4 14.5 0.00 0.00 0.00 65 1012.7
20260502191251 20 261 1.6 14.5 0.00 0.00 0.00 63 1012.8
20260502190750 20 136 8.0 14.5 0.00 0.00 0.00 60 1012.9
20260502190249 20 188 3.2 6.4 0.00 0.00 0.00 56 1012.6
20260502185749 20 170 3.2 6.4 0.00 0.00 0.00 55 1012.5
20260502185508 21 173 1.6 4.8 0.00 0.00 0.00 54 1012.2
20260502184746 21 128 3.2 4.8 0.00 0.00 0.00 54 1012.1
20260502184248 21 114 1.6 6.4 0.00 0.00 0.00 53 1012.1
20260502183745 21 101 3.2 11.3 0.00 0.00 0.00 52 1011.8
20260502183244 22 258 1.6 16.1 0.00 0.00 0.00 51 1012.0
20260502182743 22 246 4.8 17.7 0.00 0.00 0.00 50 1011.7
20260502182244 23 265 4.8 17.7 0.00 0.00 0.00 50 1012.1
20260502181741 23 159 1.6 1.6 0.00 0.00 0.00 49 1012.1
20260502181241 23 178 0.0 1.6 0.00 0.00 0.00 49 1012.0
20260502180740 23 178 0.0 1.6 0.00 0.00 0.00 49 1011.7
20260502180240 23 146 0.0 1.6 0.00 0.00 0.00 48 1011.9
20260502170232 26 165 0.0 4.8 0.00 0.00 0.00 42 1012.0
20260502163728 27 258 3.2 9.7 0.00 0.00 0.00 40 1012.4
20260502163227 27 277 0.0 4.8 0.00 0.00 0.00 40 1012.4
20260502162726 27 294 3.2 6.4 0.00 0.00 0.00 40 1012.3
20260502162448 27 275 3.2 9.7 0.00 0.00 0.00 39 1012.4
20260502161726 27 251 3.2 9.7 0.00 0.00 0.00 39 1012.4
20260502160725 27 269 1.6 6.4 0.00 0.00 0.00 41 1012.6
20260502160223 27 274 3.2 6.4 0.00 0.00 0.00 39 1012.8
20260502152220 26 265 3.2 11.3 0.00 0.00 0.00 41 1013.1
20260502151718 26 241 1.6 11.3 0.00 0.00 0.00 41 1013.3
20260502151444 26 258 1.6 12.9 0.00 0.00 0.00 41 1013.4
20260502150718 26 259 3.2 12.9 0.00 0.00 0.00 43 1013.3
20260502150216 27 257 6.4 9.7 0.00 0.00 0.00 42 1013.5
20260502130704 26 245 4.8 9.7 0.00 0.00 0.00 44 1014.6
20260502130202 26 270 3.2 6.4 0.00 0.00 0.00 44 1014.6
20260502123658 26 273 1.6 11.3 0.00 0.00 0.00 45 1015.0
20260502123425 25 230 0.0 11.3 0.00 0.00 0.00 46 1015.1
20260502122657 25 252 1.6 11.3 0.00 0.00 0.00 47 1015.0
20260502122210 25 261 0.0 6.4 0.00 0.00 0.00 47 1015.1
20260502121658 25 271 1.6 12.9 0.00 0.00 0.00 46 1015.4
20260502121156 25 212 1.6 12.9 0.00 0.00 0.00 46 1015.1
20260502120655 26 234 3.2 12.9 0.00 0.00 0.00 45 1015.2
20260502120416 26 283 3.2 12.9 0.00 0.00 0.00 45 1015.3
20260502115920 26 243 6.4 9.7 0.00 0.00 0.00 44 1015.2
20260502115153 26 103 1.6 4.8 0.00 0.00 0.00 45 1015.4
20260502114653 26 269 1.6 9.7 0.00 0.00 0.00 45 1015.2
20260502114154 26 188 1.6 11.3 0.00 0.00 0.00 44 1015.5
20260502113651 26 238 3.2 11.3 0.00 0.00 0.00 44 1015.7
20260502113409 26 159 4.8 9.7 0.00 0.00 0.00 44 1015.7
20260502112652 26 226 6.4 9.7 0.00 0.00 0.00 43 1015.5
20260502112149 26 186 3.2 16.1 0.00 0.00 0.00 44 1015.6
20260502111649 26 157 11.3 16.1 0.00 0.00 0.00 45 1015.9
20260502111148 25 238 3.2 11.3 0.00 0.00 0.00 45 1015.8
20260502110649 25 217 4.8 11.3 0.00 0.00 0.00 45 1015.8
20260502105646 25 206 4.8 14.5 0.00 0.00 0.00 45 1015.9
20260502105146 25 280 4.8 12.9 0.00 0.00 0.00 46 1016.0
20260502104648 24 157 4.8 9.7 0.00 0.00 0.00 47 1015.9
20260502104145 24 249 3.2 12.9 0.00 0.00 0.00 47 1016.1
20260502103644 23 102 4.8 12.9 0.00 0.00 0.00 47 1016.0
20260502103144 23 164 6.4 14.5 0.00 0.00 0.00 47 1016.3
20260502102909 23 161 4.8 14.5 0.00 0.00 0.00 48 1016.3
20260502102142 23 262 3.2 9.7 0.00 0.00 0.00 48 1016.2
20260502101643 22 222 1.6 9.7 0.00 0.00 0.00 49 1016.1
20260502101140 22 264 1.6 6.4 0.00 0.00 0.00 48 1016.3
20260502100640 22 146 3.2 9.7 0.00 0.00 0.00 48 1016.3
20260502100357 22 171 4.8 9.7 0.00 0.00 0.00 49 1016.3
20260502091133 20 226 0.0 6.4 0.00 0.00 0.00 48 1016.8
20260502090132 20 231 0.0 6.4 0.00 0.00 0.00 47 1016.8
20260502071128 15 245 0.0 6.4 0.00 0.00 0.00 55 1016.9
20260502070618 15 219 0.0 6.4 0.00 0.00 0.00 56 1016.9
20260502070117 15 183 1.6 4.8 0.00 0.00 0.00 56 1016.8
20260502065618 15 181 3.2 4.8 0.00 0.00 0.00 56 1017.1
20260502065115 15 235 1.6 4.8 0.00 0.00 0.00 56 1017.1
20260502064615 15 147 0.0 6.4 0.00 0.00 0.00 57 1017.0
20260502064114 15 169 3.2 6.4 0.00 0.00 0.00 57 1017.0
20260502063615 15 172 3.2 4.8 0.00 0.00 0.00 56 1017.3
20260502063333 16 133 1.6 6.4 0.00 0.00 0.00 55 1016.9
20260502062612 16 261 6.4 6.4 0.00 0.00 0.00 55 1017.1
20260502062332 17 179 1.6 4.8 0.00 0.00 0.00 55 1016.9
20260502061612 16 270 1.6 4.8 0.00 0.00 0.00 57 1016.9
20260502061111 16 188 3.2 4.8 0.00 0.00 0.00 58 1016.9
20260502060611 15 213 0.0 4.8 0.00 0.00 0.00 61 1016.8
20260502060112 14 214 0.0 4.8 0.00 0.00 0.00 63 1016.9
20260502055109 12 180 3.2 4.8 0.00 0.00 0.00 66 1016.9
20260502054828 11 267 3.2 4.8 0.00 0.00 0.00 67 1017.0
20260502054107 11 162 0.0 4.8 0.00 0.00 0.00 67 1017.0
20260502053620 11 159 0.0 4.8 0.00 0.00 0.00 67 1016.8
20260502053106 10 222 0.0 6.4 0.00 0.00 0.00 68 1017.1
20260502052606 10 249 1.6 6.4 0.00 0.00 0.00 69 1016.7
20260502052108 10 186 0.0 3.2 0.00 0.00 0.00 69 1016.9
20260502051604 9 162 1.6 4.8 0.00 0.00 0.00 70 1016.9
20260502051104 9 201 0.0 4.8 0.00 0.00 0.00 70 1016.8
20260502050603 8 171 1.6 3.2 0.00 0.00 0.00 71 1016.7
20260502045603 8 142 0.0 1.6 0.00 0.00 0.00 72 1016.7
20260502045101 8 123 0.0 0.0 0.00 0.00 0.00 72 1016.8
20260502044602 8 118 0.0 0.0 0.00 0.00 0.00 72 1016.7
20260502044100 8 116 0.0 0.0 0.00 0.00 0.00 71 1016.8
20260502043559 8 115 0.0 0.0 0.00 0.00 0.00 71 1016.7
20260502043059 8 115 0.0 0.0 0.00 0.00 0.00 71 1016.8
20260502042559 8 115 0.0 0.0 0.00 0.00 0.00 71 1017.0
20260502042057 8 115 0.0 0.0 0.00 0.00 0.00 70 1016.8
20260502041557 8 115 0.0 0.0 0.00 0.00 0.00 70 1016.6
20260502041056 8 115 0.0 0.0 0.00 0.00 0.00 70 1016.8
20260502040835 8 115 0.0 0.0 0.00 0.00 0.00 70 1017.0
20260502040109 8 115 0.0 0.0 0.00 0.00 0.00 70 1017.0
20260502035554 8 115 0.0 0.0 0.00 0.00 0.00 70 1017.0
20260502035053 8 115 0.0 0.0 0.00 0.00 0.00 69 1017.2
20260502034554 8 116 0.0 0.0 0.00 0.00 0.00 70 1017.3
20260502034053 8 116 0.0 0.0 0.00 0.00 0.00 69 1017.2
20260502033552 8 116 0.0 0.0 0.00 0.00 0.00 69 1017.1
20260502033053 8 115 0.0 0.0 0.00 0.00 0.00 68 1017.0
20260502032550 8 116 0.0 0.0 0.00 0.00 0.00 68 1017.1
20260502032314 9 116 0.0 0.0 0.00 0.00 0.00 68 1017.2
20260502031549 9 116 0.0 0.0 0.00 0.00 0.00 68 1017.1
20260502031317 9 116 0.0 0.0 0.00 0.00 0.00 68 1017.0
20260502030548 9 124 0.0 0.0 0.00 0.00 0.00 67 1017.3
20260502025547 9 124 0.0 0.0 0.00 0.00 0.00 67 1017.5
20260502025046 9 124 0.0 0.0 0.00 0.00 0.00 67 1017.5
20260502024545 9 124 0.0 0.0 0.00 0.00 0.00 67 1017.6
20260502023544 10 124 0.0 0.0 0.00 0.00 0.00 66 1017.7
20260502023044 10 124 0.0 0.0 0.00 0.00 0.00 66 1017.6
20260502022543 10 124 0.0 0.0 0.00 0.00 0.00 65 1017.6
20260502022043 10 171 0.0 0.0 0.00 0.00 0.00 66 1017.7
20260502021542 10 171 0.0 0.0 0.00 0.00 0.00 65 1017.6
20260502021041 10 171 0.0 0.0 0.00 0.00 0.00 65 1017.5
20260502020553 10 171 0.0 0.0 0.00 0.00 0.00 64 1017.4
20260502020041 10 171 0.0 0.0 0.00 0.00 0.00 65 1017.7
20260502015539 10 171 0.0 0.0 0.00 0.00 0.00 64 1017.7
20260502015300 10 171 0.0 0.0 0.00 0.00 0.00 64 1017.7
20260502014539 10 171 0.0 0.0 0.00 0.00 0.00 63 1017.9
20260502014040 10 171 0.0 0.0 0.00 0.00 0.00 63 1017.9
20260502013537 10 171 0.0 0.0 0.00 0.00 0.00 62 1017.6
20260502013302 10 171 0.0 0.0 0.00 0.00 0.00 62 1018.0
20260502012751 11 171 0.0 0.0 0.00 0.00 0.00 61 1017.8
20260502012259 11 171 0.0 0.0 0.00 0.00 0.00 61 1017.8
20260502011534 11 171 0.0 0.0 0.00 0.00 0.00 61 1017.9
20260502011035 11 171 0.0 0.0 0.00 0.00 0.00 60 1017.9
20260502010533 11 171 0.0 0.0 0.00 0.00 0.00 59 1018.1
20260502010032 11 171 0.0 0.0 0.00 0.00 0.00 59 1018.3
20260502005532 11 171 0.0 0.0 0.00 0.00 0.00 58 1018.3
20260502005255 11 171 0.0 0.0 0.00 0.00 0.00 58 1018.3
20260502004531 12 171 0.0 0.0 0.00 0.00 0.00 57 1018.3
20260502004030 12 172 0.0 0.0 0.00 0.00 0.00 56 1018.3
20260502003529 12 172 0.0 0.0 0.00 0.00 0.00 55 1018.5
20260502003031 12 172 0.0 0.0 0.00 0.00 0.00 56 1018.4
20260502002528 12 172 0.0 0.0 0.00 0.00 0.00 54 1018.5
20260502002027 12 172 0.0 0.0 0.00 0.00 0.00 54 1018.6
20260502001526 12 172 0.0 0.0 0.00 0.00 0.00 55 1018.5
20260502001026 12 173 0.0 1.6 0.00 0.00 0.00 54 1018.6
20260502000749 12 174 0.0 1.6 0.00 0.00 0.00 54 1018.6
20260502000025 12 177 0.0 3.2 0.00 0.00 0.00 54 1018.6
20260501235526 12 184 0.0 3.2 0.00 0.00 0.00 53 1018.6
20260501235024 13 168 0.0 1.6 0.00 0.00 0.00 53 1018.8
20260501234525 13 156 0.0 1.6 0.00 0.00 0.00 53 1018.8
20260501234024 13 161 0.0 3.2 0.00 0.00 0.00 53 1018.7
20260501233523 13 207 1.6 3.2 0.00 0.00 0.00 53 1018.9
20260501233022 13 167 0.0 0.0 0.00 0.00 0.00 53 1018.8
20260501232534 13 168 0.0 1.6 0.00 0.00 0.00 52 1019.0
20260501232020 13 170 0.0 1.6 0.00 0.00 0.00 52 1018.9
20260501231520 13 177 0.0 1.6 0.00 0.00 0.00 51 1018.9
20260501231021 13 176 0.0 0.0 0.00 0.00 0.00 51 1019.0
20260501230519 13 176 0.0 0.0 0.00 0.00 0.00 50 1019.0
20260501230018 14 176 0.0 0.0 0.00 0.00 0.00 49 1019.2
20260501225518 14 176 0.0 0.0 0.00 0.00 0.00 48 1019.0
20260501225018 14 178 0.0 1.6 0.00 0.00 0.00 48 1019.0
20260501224517 15 177 0.0 1.6 0.00 0.00 0.00 48 1019.1
20260501224240 15 180 0.0 1.6 0.00 0.00 0.00 48 1019.1
20260501223517 15 181 0.0 1.6 0.00 0.00 0.00 47 1018.9
20260501223014 15 158 0.0 1.6 0.00 0.00 0.00 47 1018.9
20260501222734 15 226 0.0 1.6 0.00 0.00 0.00 47 1019.1
20260501222015 15 225 0.0 1.6 0.00 0.00 0.00 46 1019.1
20260501221730 15 199 0.0 1.6 0.00 0.00 0.00 46 1018.8
20260501221012 16 209 0.0 3.2 0.00 0.00 0.00 46 1019.2
20260501220513 16 199 0.0 3.2 0.00 0.00 0.00 45 1019.1
20260501220012 16 181 0.0 4.8 0.00 0.00 0.00 44 1019.3
20260501215510 16 179 3.2 6.4 0.00 0.00 0.00 44 1019.1
20260501215230 16 206 1.6 6.4 0.00 0.00 0.00 44 1019.1
20260501214511 16 183 0.0 6.4 0.00 0.00 0.00 44 1019.2
20260501214227 16 149 0.0 1.6 0.00 0.00 0.00 44 1019.2
20260501213508 16 146 0.0 3.2 0.00 0.00 0.00 44 1019.2
20260501213009 16 155 1.6 3.2 0.00 0.00 0.00 44 1019.1
20260501212507 16 149 1.6 1.6 0.00 0.00 0.00 44 1019.1
20260501212006 16 146 0.0 1.6 0.00 0.00 0.00 45 1019.1
20260501211730 16 130 0.0 1.6 0.00 0.00 0.00 44 1019.1
20260501211006 16 110 0.0 0.0 0.00 0.00 0.00 44 1019.1
20260501210504 16 106 0.0 1.6 0.00 0.00 0.00 43 1019.3
20260501210004 16 170 0.0 1.6 0.00 0.00 0.00 44 1019.1
20260501205502 16 140 0.0 3.2 0.00 0.00 0.00 44 1019.2
20260501205002 16 130 0.0 3.2 0.00 0.00 0.00 43 1019.2
20260501204503 17 140 0.0 1.6 0.00 0.00 0.00 43 1019.1
20260501204001 17 149 0.0 1.6 0.00 0.00 0.00 42 1019.2
20260501203501 17 132 0.0 0.0 0.00 0.00 0.00 42 1019.1
20260501203000 17 132 0.0 1.6 0.00 0.00 0.00 43 1019.1
20260501202501 17 132 0.0 1.6 0.00 0.00 0.00 42 1019.2
20260501201959 17 136 0.0 1.6 0.00 0.00 0.00 42 1019.3
20260501200959 18 136 0.0 1.6 0.00 0.00 0.00 40 1019.2
20260501200457 18 191 0.0 1.6 0.00 0.00 0.00 40 1019.3